| time (UTC) | temp F | wind direction | speed MPH | gust MPH | rain 1hr in | rain 24hr in | rain mn in | humidity % | barometer mb |
| 20260903192316 | 97 | 131 | 4.0 | 7.0 | 0.00 | 0.00 | 0.00 | 48 | 1016.5 |
| 20260903191813 | 97 | 112 | 5.0 | 8.0 | 0.00 | 0.00 | 0.00 | 48 | 1016.5 |
| 20260903191308 | 97 | 165 | 3.0 | 5.0 | 0.00 | 0.00 | 0.00 | 48 | 1016.8 |
| 20260903190807 | 98 | 155 | 4.0 | 5.0 | 0.00 | 0.00 | 0.00 | 48 | 1016.8 |
| 20260903190302 | 97 | 89 | 6.0 | 9.0 | 0.00 | 0.00 | 0.00 | 48 | 1016.8 |
| 20260903185757 | 96 | 151 | 3.0 | 5.0 | 0.00 | 0.00 | 0.00 | 48 | 1016.8 |
| 20260903185256 | 98 | 63 | 2.0 | 4.0 | 0.00 | 0.00 | 0.00 | 44 | 1016.8 |
| 20260903184753 | 98 | 190 | 4.0 | 7.0 | 0.00 | 0.00 | 0.00 | 46 | 1016.8 |
| 20260903184249 | 98 | 182 | 1.0 | 4.0 | 0.00 | 0.00 | 0.00 | 46 | 1016.8 |
| 20260903183744 | 100 | 182 | 3.0 | 7.0 | 0.00 | 0.00 | 0.00 | 44 | 1016.8 |
| 20260903183238 | 99 | 98 | 2.0 | 4.0 | 0.00 | 0.00 | 0.00 | 43 | 1016.8 |
| 20260903182737 | 99 | 123 | 5.0 | 7.0 | 0.00 | 0.00 | 0.00 | 43 | 1016.8 |
| 20260903182232 | 99 | 101 | 5.0 | 7.0 | 0.00 | 0.00 | 0.00 | 44 | 1016.8 |
| 20260903181731 | 98 | 138 | 5.0 | 7.0 | 0.00 | 0.00 | 0.00 | 46 | 1016.8 |
| 20260903181226 | 97 | 150 | 4.0 | 7.0 | 0.00 | 0.00 | 0.00 | 47 | 1017.2 |
| 20260903180722 | 97 | 104 | 6.0 | 10.0 | 0.00 | 0.00 | 0.00 | 48 | 1017.2 |
| 20260903180221 | 97 | 97 | 6.0 | 11.0 | 0.00 | 0.00 | 0.00 | 48 | 1017.2 |
| 20260903175721 | 96 | 121 | 3.0 | 5.0 | 0.00 | 0.00 | 0.00 | 49 | 1017.5 |
| 20260903175215 | 96 | 137 | 7.0 | 12.0 | 0.00 | 0.00 | 0.00 | 48 | 1017.5 |
| 20260903174714 | 98 | 129 | 7.0 | 8.0 | 0.00 | 0.00 | 0.00 | 46 | 1017.5 |
| 20260903174209 | 97 | 125 | 3.0 | 5.0 | 0.00 | 0.00 | 0.00 | 47 | 1017.5 |
| 20260903173709 | 95 | 110 | 2.0 | 4.0 | 0.00 | 0.00 | 0.00 | 48 | 1017.8 |
| 20260903173206 | 95 | 128 | 2.0 | 4.0 | 0.00 | 0.00 | 0.00 | 49 | 1017.8 |
| 20260903172700 | 96 | 105 | 3.0 | 4.0 | 0.00 | 0.00 | 0.00 | 47 | 1017.5 |
| 20260903172155 | 98 | 113 | 8.0 | 10.0 | 0.00 | 0.00 | 0.00 | 46 | 1017.2 |
| 20260903171650 | 98 | 129 | 2.0 | 5.0 | 0.00 | 0.00 | 0.00 | 46 | 1017.2 |
| 20260903171147 | 98 | 142 | 2.0 | 5.0 | 0.00 | 0.00 | 0.00 | 46 | 1017.2 |
| 20260903170645 | 98 | 148 | 4.0 | 7.0 | 0.00 | 0.00 | 0.00 | 47 | 1017.5 |
| 20260903170141 | 96 | 115 | 5.0 | 7.0 | 0.00 | 0.00 | 0.00 | 48 | 1017.5 |
| 20260903165638 | 97 | 164 | 5.0 | 10.0 | 0.00 | 0.00 | 0.00 | 48 | 1017.2 |
| 20260903165133 | 97 | 225 | 3.0 | 5.0 | 0.00 | 0.00 | 0.00 | 48 | 1017.2 |
| 20260903164627 | 99 | 71 | 2.0 | 5.0 | 0.00 | 0.00 | 0.00 | 46 | 1017.5 |
| 20260903164124 | 99 | 121 | 4.0 | 5.0 | 0.00 | 0.00 | 0.00 | 47 | 1017.5 |
| 20260903163619 | 98 | 213 | 1.0 | 3.0 | 0.00 | 0.00 | 0.00 | 48 | 1017.5 |
| 20260903163115 | 98 | 13 | 1.0 | 4.0 | 0.00 | 0.00 | 0.00 | 47 | 1017.5 |
| 20260903162611 | 97 | 169 | 2.0 | 3.0 | 0.00 | 0.00 | 0.00 | 49 | 1017.8 |
| 20260903162107 | 97 | 243 | 4.0 | 7.0 | 0.00 | 0.00 | 0.00 | 49 | 1017.8 |
| 20260903161602 | 97 | 176 | 3.0 | 7.0 | 0.00 | 0.00 | 0.00 | 49 | 1017.8 |
| 20260903161057 | 96 | 141 | 0.0 | 0.0 | 0.00 | 0.00 | 0.00 | 51 | 1017.8 |
| 20260903160556 | 96 | 176 | 4.0 | 7.0 | 0.00 | 0.00 | 0.00 | 50 | 1018.2 |
| 20260903160051 | 97 | 173 | 3.0 | 6.0 | 0.00 | 0.00 | 0.00 | 50 | 1018.2 |
| 20260903155550 | 96 | 118 | 0.0 | 0.0 | 0.00 | 0.00 | 0.00 | 51 | 1018.2 |
| 20260903155046 | 96 | 216 | 2.0 | 4.0 | 0.00 | 0.00 | 0.00 | 53 | 1018.2 |
| 20260903154542 | 97 | 131 | 6.0 | 7.0 | 0.00 | 0.00 | 0.00 | 50 | 1018.2 |
| 20260903154038 | 96 | 295 | 0.0 | 0.0 | 0.00 | 0.00 | 0.00 | 48 | 1018.2 |
| 20260903153533 | 96 | 237 | 0.0 | 0.0 | 0.00 | 0.00 | 0.00 | 51 | 1018.2 |
| 20260903153029 | 95 | 226 | 0.0 | 0.0 | 0.00 | 0.00 | 0.00 | 53 | 1018.2 |
| 20260903152525 | 94 | 144 | 1.0 | 2.0 | 0.00 | 0.00 | 0.00 | 54 | 1018.5 |
| 20260903152021 | 94 | 133 | 0.0 | 2.0 | 0.00 | 0.00 | 0.00 | 54 | 1018.5 |
| 20260903151519 | 93 | 133 | 3.0 | 4.0 | 0.00 | 0.00 | 0.00 | 56 | 1018.5 |
| 20260903151014 | 93 | 99 | 1.0 | 3.0 | 0.00 | 0.00 | 0.00 | 56 | 1018.5 |
| 20260903150509 | 93 | 99 | 4.0 | 6.0 | 0.00 | 0.00 | 0.00 | 56 | 1018.5 |
| 20260903150005 | 92 | 153 | 4.0 | 7.0 | 0.00 | 0.00 | 0.00 | 57 | 1018.5 |
| 20260903145459 | 92 | 126 | 2.0 | 4.0 | 0.00 | 0.00 | 0.00 | 57 | 1018.5 |
| 20260903144954 | 93 | 139 | 3.0 | 6.0 | 0.00 | 0.00 | 0.00 | 54 | 1018.5 |
| 20260903144453 | 92 | 213 | 0.0 | 0.0 | 0.00 | 0.00 | 0.00 | 55 | 1018.5 |
| 20260903143949 | 92 | 213 | 2.0 | 3.0 | 0.00 | 0.00 | 0.00 | 55 | 1018.5 |
| 20260903143446 | 92 | 308 | 0.0 | 0.0 | 0.00 | 0.00 | 0.00 | 55 | 1018.5 |
| 20260903142941 | 93 | 308 | 1.0 | 2.0 | 0.00 | 0.00 | 0.00 | 56 | 1018.5 |
| 20260903142436 | 92 | 308 | 0.0 | 0.0 | 0.00 | 0.00 | 0.00 | 57 | 1018.5 |
| 20260903141932 | 91 | 308 | 0.0 | 0.0 | 0.00 | 0.00 | 0.00 | 58 | 1018.5 |
| 20260903141428 | 90 | 308 | 0.0 | 0.0 | 0.00 | 0.00 | 0.00 | 59 | 1018.5 |
| 20260903140924 | 89 | 308 | 0.0 | 0.0 | 0.00 | 0.00 | 0.00 | 60 | 1018.5 |
| 20260903140419 | 89 | 308 | 0.0 | 0.0 | 0.00 | 0.00 | 0.00 | 63 | 1018.5 |
| 20260903135914 | 88 | 308 | 1.0 | 2.0 | 0.00 | 0.00 | 0.00 | 63 | 1018.5 |
| 20260903135410 | 88 | 308 | 0.0 | 0.0 | 0.00 | 0.00 | 0.00 | 64 | 1018.5 |
| 20260903134908 | 87 | 308 | 0.0 | 0.0 | 0.00 | 0.00 | 0.00 | 65 | 1018.5 |
| 20260903134357 | 86 | 308 | 0.0 | 0.0 | 0.00 | 0.00 | 0.00 | 67 | 1018.5 |
| 20260903133855 | 85 | 308 | 0.0 | 0.0 | 0.00 | 0.00 | 0.00 | 69 | 1018.8 |
| 20260903133351 | 84 | 308 | 0.0 | 0.0 | 0.00 | 0.00 | 0.00 | 72 | 1018.8 |
| 20260903132846 | 83 | 308 | 0.0 | 0.0 | 0.00 | 0.00 | 0.00 | 73 | 1018.8 |
| 20260903132342 | 82 | 308 | 0.0 | 0.0 | 0.00 | 0.00 | 0.00 | 77 | 1018.8 |
| 20260903131842 | 81 | 308 | 0.0 | 0.0 | 0.00 | 0.00 | 0.00 | 78 | 1019.2 |
| 20260903131341 | 81 | 308 | 0.0 | 0.0 | 0.00 | 0.00 | 0.00 | 78 | 1019.2 |
| 20260903130840 | 82 | 308 | 0.0 | 0.0 | 0.00 | 0.00 | 0.00 | 79 | 1019.2 |
| 20260903130335 | 81 | 308 | 0.0 | 0.0 | 0.00 | 0.00 | 0.00 | 80 | 1019.2 |
| 20260903125834 | 81 | 308 | 0.0 | 0.0 | 0.00 | 0.00 | 0.00 | 81 | 1019.2 |
| 20260903125330 | 80 | 308 | 0.0 | 0.0 | 0.00 | 0.00 | 0.00 | 81 | 1019.2 |
| 20260903124828 | 80 | 308 | 0.0 | 0.0 | 0.00 | 0.00 | 0.00 | 82 | 1019.2 |
| 20260903124324 | 79 | 308 | 0.0 | 0.0 | 0.00 | 0.00 | 0.00 | 83 | 1019.2 |
| 20260903123822 | 79 | 308 | 0.0 | 0.0 | 0.00 | 0.00 | 0.00 | 84 | 1019.2 |
| 20260903123317 | 78 | 308 | 0.0 | 0.0 | 0.00 | 0.00 | 0.00 | 86 | 1019.5 |
| 20260903122815 | 77 | 308 | 0.0 | 0.0 | 0.00 | 0.00 | 0.00 | 88 | 1019.2 |
| 20260903122311 | 77 | 308 | 0.0 | 0.0 | 0.00 | 0.00 | 0.00 | 89 | 1019.5 |
| 20260903121809 | 76 | 308 | 0.0 | 0.0 | 0.00 | 0.00 | 0.00 | 92 | 1019.5 |
| 20260903121305 | 75 | 308 | 0.0 | 0.0 | 0.00 | 0.00 | 0.00 | 92 | 1019.5 |
| 20260903120800 | 75 | 308 | 0.0 | 0.0 | 0.00 | 0.00 | 0.00 | 93 | 1019.5 |
| 20260903120254 | 73 | 308 | 0.0 | 0.0 | 0.00 | 0.00 | 0.00 | 95 | 1019.5 |
| 20260903115752 | 72 | 308 | 0.0 | 0.0 | 0.00 | 0.00 | 0.00 | 97 | 1019.5 |
| 20260903115248 | 72 | 308 | 0.0 | 0.0 | 0.00 | 0.00 | 0.00 | 97 | 1019.5 |
| 20260903114742 | 71 | 308 | 0.0 | 0.0 | 0.00 | 0.00 | 0.00 | 97 | 1020.0 |
| 20260903114238 | 71 | 308 | 0.0 | 0.0 | 0.00 | 0.00 | 0.00 | 98 | 1019.5 |
| 20260903113733 | 71 | 308 | 0.0 | 0.0 | 0.00 | 0.00 | 0.00 | 99 | 1019.5 |
| 20260903113229 | 70 | 308 | 0.0 | 0.0 | 0.00 | 0.00 | 0.00 | 99 | 1019.5 |
| 20260903112725 | 69 | 308 | 0.0 | 0.0 | 0.00 | 0.00 | 0.00 | 99 | 1019.5 |
| 20260903112220 | 69 | 308 | 0.0 | 0.0 | 0.00 | 0.00 | 0.00 | 99 | 1019.2 |
| 20260903111719 | 69 | 308 | 0.0 | 0.0 | 0.00 | 0.00 | 0.00 | 99 | 1019.2 |
| 20260903111214 | 69 | 308 | 0.0 | 0.0 | 0.00 | 0.00 | 0.00 | 99 | 1019.2 |
| 20260903110710 | 69 | 308 | 0.0 | 0.0 | 0.00 | 0.00 | 0.00 | 99 | 1019.2 |
| 20260903110205 | 69 | 308 | 0.0 | 2.0 | 0.00 | 0.00 | 0.00 | 99 | 1018.8 |
| 20260903105700 | 69 | 308 | 0.0 | 0.0 | 0.00 | 0.00 | 0.00 | 99 | 1019.2 |
| 20260903105155 | 69 | 308 | 0.0 | 0.0 | 0.00 | 0.00 | 0.00 | 99 | 1018.8 |
| 20260903104654 | 69 | 308 | 0.0 | 0.0 | 0.00 | 0.00 | 0.00 | 99 | 1018.8 |
| 20260903104150 | 69 | 308 | 0.0 | 0.0 | 0.00 | 0.00 | 0.00 | 99 | 1018.8 |
| 20260903103646 | 69 | 308 | 0.0 | 0.0 | 0.00 | 0.00 | 0.00 | 99 | 1018.8 |
| 20260903103142 | 69 | 308 | 0.0 | 0.0 | 0.00 | 0.00 | 0.00 | 99 | 1018.8 |
| 20260903102637 | 69 | 308 | 0.0 | 0.0 | 0.00 | 0.00 | 0.00 | 99 | 1018.8 |
| 20260903102136 | 69 | 308 | 0.0 | 0.0 | 0.00 | 0.00 | 0.00 | 99 | 1018.8 |
| 20260903101630 | 69 | 308 | 0.0 | 0.0 | 0.00 | 0.00 | 0.00 | 99 | 1018.8 |
| 20260903101125 | 69 | 308 | 0.0 | 0.0 | 0.00 | 0.00 | 0.00 | 99 | 1018.8 |
| 20260903100620 | 69 | 308 | 0.0 | 0.0 | 0.00 | 0.00 | 0.00 | 98 | 1018.8 |
| 20260903100119 | 70 | 308 | 0.0 | 0.0 | 0.00 | 0.00 | 0.00 | 98 | 1018.8 |
| 20260903095617 | 70 | 308 | 0.0 | 0.0 | 0.00 | 0.00 | 0.00 | 98 | 1018.8 |
| 20260903095117 | 70 | 308 | 0.0 | 0.0 | 0.00 | 0.00 | 0.00 | 99 | 1018.8 |
| 20260903094612 | 70 | 308 | 0.0 | 0.0 | 0.00 | 0.00 | 0.00 | 99 | 1018.8 |
| 20260903094107 | 70 | 308 | 0.0 | 0.0 | 0.00 | 0.00 | 0.00 | 99 | 1018.8 |
| 20260903093603 | 70 | 308 | 0.0 | 0.0 | 0.00 | 0.00 | 0.00 | 99 | 1018.8 |
| 20260903093058 | 70 | 308 | 0.0 | 0.0 | 0.00 | 0.00 | 0.00 | 99 | 1018.8 |
| 20260903092557 | 70 | 308 | 0.0 | 0.0 | 0.00 | 0.00 | 0.00 | 99 | 1018.8 |
| 20260903092052 | 70 | 308 | 0.0 | 0.0 | 0.00 | 0.00 | 0.00 | 99 | 1018.8 |
| 20260903091550 | 70 | 308 | 0.0 | 0.0 | 0.00 | 0.00 | 0.00 | 99 | 1018.8 |
| 20260903091045 | 70 | 308 | 0.0 | 0.0 | 0.00 | 0.00 | 0.00 | 99 | 1018.8 |
| 20260903090541 | 70 | 308 | 0.0 | 0.0 | 0.00 | 0.00 | 0.00 | 99 | 1018.8 |
| 20260903090039 | 69 | 308 | 0.0 | 0.0 | 0.00 | 0.00 | 0.00 | 99 | 1018.8 |
| 20260903085538 | 69 | 308 | 0.0 | 0.0 | 0.00 | 0.00 | 0.00 | 99 | 1018.8 |
| 20260903085034 | 69 | 308 | 0.0 | 0.0 | 0.00 | 0.00 | 0.00 | 99 | 1018.8 |
| 20260903084532 | 69 | 308 | 0.0 | 0.0 | 0.00 | 0.00 | 0.00 | 99 | 1018.5 |
| 20260903084027 | 69 | 308 | 0.0 | 0.0 | 0.00 | 0.00 | 0.00 | 99 | 1018.8 |
| 20260903083523 | 69 | 308 | 0.0 | 0.0 | 0.00 | 0.00 | 0.00 | 99 | 1018.5 |
| 20260903083022 | 70 | 308 | 0.0 | 0.0 | 0.00 | 0.00 | 0.00 | 98 | 1018.5 |
| 20260903082516 | 70 | 308 | 0.0 | 0.0 | 0.00 | 0.00 | 0.00 | 98 | 1018.5 |
| 20260903082012 | 70 | 308 | 0.0 | 0.0 | 0.00 | 0.00 | 0.00 | 98 | 1018.5 |
| 20260903081507 | 70 | 308 | 0.0 | 0.0 | 0.00 | 0.00 | 0.00 | 98 | 1018.5 |
| 20260903081004 | 70 | 308 | 0.0 | 0.0 | 0.00 | 0.00 | 0.00 | 98 | 1018.5 |
| 20260903080459 | 70 | 308 | 0.0 | 0.0 | 0.00 | 0.00 | 0.00 | 98 | 1018.5 |
| 20260903075955 | 70 | 308 | 0.0 | 0.0 | 0.00 | 0.00 | 0.00 | 98 | 1018.5 |
| 20260903075450 | 70 | 308 | 0.0 | 0.0 | 0.00 | 0.00 | 0.00 | 98 | 1018.5 |
| 20260903074946 | 70 | 308 | 0.0 | 0.0 | 0.00 | 0.00 | 0.00 | 98 | 1018.5 |
| 20260903074444 | 70 | 308 | 0.0 | 0.0 | 0.00 | 0.00 | 0.00 | 97 | 1018.8 |
| 20260903073940 | 71 | 308 | 0.0 | 0.0 | 0.00 | 0.00 | 0.00 | 97 | 1018.8 |
| 20260903073435 | 71 | 308 | 0.0 | 0.0 | 0.00 | 0.00 | 0.00 | 97 | 1018.8 |
| 20260903072931 | 71 | 308 | 0.0 | 0.0 | 0.00 | 0.00 | 0.00 | 98 | 1018.8 |
| 20260903072427 | 71 | 308 | 0.0 | 0.0 | 0.00 | 0.00 | 0.00 | 98 | 1018.8 |
| 20260903071923 | 70 | 308 | 0.0 | 0.0 | 0.00 | 0.00 | 0.00 | 98 | 1018.5 |
| 20260903071419 | 70 | 308 | 0.0 | 0.0 | 0.00 | 0.00 | 0.00 | 98 | 1018.8 |
| 20260903070914 | 70 | 308 | 0.0 | 0.0 | 0.00 | 0.00 | 0.00 | 97 | 1018.8 |
| 20260903070408 | 71 | 308 | 0.0 | 0.0 | 0.00 | 0.00 | 0.00 | 97 | 1018.8 |
| 20260903065903 | 71 | 308 | 0.0 | 0.0 | 0.00 | 0.00 | 0.00 | 97 | 1018.5 |
| 20260903065403 | 71 | 308 | 0.0 | 0.0 | 0.00 | 0.00 | 0.00 | 97 | 1018.8 |
| 20260903064902 | 70 | 308 | 0.0 | 0.0 | 0.00 | 0.00 | 0.00 | 97 | 1018.8 |
| 20260903064358 | 71 | 308 | 0.0 | 0.0 | 0.00 | 0.00 | 0.00 | 97 | 1018.8 |
| 20260903063853 | 71 | 308 | 0.0 | 0.0 | 0.00 | 0.00 | 0.00 | 97 | 1018.8 |
| 20260903063343 | 71 | 308 | 0.0 | 0.0 | 0.00 | 0.00 | 0.00 | 97 | 1018.8 |
| 20260903062839 | 71 | 308 | 0.0 | 0.0 | 0.00 | 0.00 | 0.00 | 97 | 1018.8 |
| 20260903062338 | 71 | 308 | 0.0 | 0.0 | 0.00 | 0.00 | 0.00 | 97 | 1018.5 |
| 20260903061834 | 71 | 308 | 0.0 | 0.0 | 0.00 | 0.00 | 0.00 | 97 | 1018.5 |
| 20260903061328 | 71 | 308 | 0.0 | 0.0 | 0.00 | 0.00 | 0.00 | 97 | 1018.5 |
| 20260903060824 | 71 | 308 | 0.0 | 0.0 | 0.00 | 0.00 | 0.00 | 97 | 1018.8 |
| 20260903060323 | 71 | 308 | 0.0 | 0.0 | 0.00 | 0.00 | 0.00 | 97 | 1018.8 |
| 20260903055821 | 71 | 308 | 0.0 | 0.0 | 0.00 | 0.00 | 0.00 | 97 | 1018.8 |
| 20260903055319 | 71 | 308 | 0.0 | 0.0 | 0.00 | 0.00 | 0.00 | 96 | 1018.8 |
| 20260903054815 | 71 | 308 | 0.0 | 0.0 | 0.00 | 0.00 | 0.00 | 96 | 1018.8 |
| 20260903054314 | 71 | 308 | 0.0 | 0.0 | 0.00 | 0.00 | 0.00 | 96 | 1018.8 |
| 20260903053811 | 71 | 308 | 0.0 | 0.0 | 0.00 | 0.00 | 0.00 | 96 | 1019.2 |
| 20260903053306 | 71 | 308 | 0.0 | 0.0 | 0.00 | 0.00 | 0.00 | 96 | 1018.8 |
| 20260903052802 | 71 | 308 | 0.0 | 0.0 | 0.00 | 0.00 | 0.00 | 96 | 1018.8 |
| 20260903052257 | 71 | 308 | 0.0 | 0.0 | 0.00 | 0.00 | 0.00 | 96 | 1018.8 |
| 20260903051752 | 72 | 308 | 0.0 | 0.0 | 0.00 | 0.00 | 0.00 | 95 | 1018.8 |
| 20260903051248 | 72 | 308 | 0.0 | 0.0 | 0.00 | 0.00 | 0.00 | 95 | 1018.8 |
| 20260903050743 | 72 | 308 | 0.0 | 0.0 | 0.00 | 0.00 | 0.00 | 95 | 1018.8 |
| 20260903050242 | 72 | 308 | 0.0 | 0.0 | 0.00 | 0.00 | 0.00 | 95 | 1018.8 |
| 20260903045737 | 72 | 308 | 0.0 | 0.0 | 0.00 | 0.00 | 0.00 | 95 | 1018.8 |
| 20260903045233 | 72 | 308 | 0.0 | 0.0 | 0.00 | 0.00 | 0.00 | 95 | 1018.8 |
| 20260903044729 | 72 | 308 | 0.0 | 0.0 | 0.00 | 0.00 | 0.00 | 94 | 1018.8 |
| 20260903044224 | 72 | 308 | 0.0 | 0.0 | 0.00 | 0.00 | 0.00 | 94 | 1018.8 |
| 20260903043722 | 73 | 308 | 0.0 | 0.0 | 0.00 | 0.00 | 0.00 | 94 | 1018.8 |
| 20260903043221 | 73 | 308 | 0.0 | 0.0 | 0.00 | 0.00 | 0.00 | 94 | 1018.8 |
| 20260903042720 | 73 | 308 | 0.0 | 0.0 | 0.00 | 0.00 | 0.00 | 94 | 1018.8 |
| 20260903042215 | 73 | 308 | 0.0 | 0.0 | 0.00 | 0.00 | 0.00 | 93 | 1018.8 |
| 20260903041711 | 73 | 308 | 0.0 | 0.0 | 0.00 | 0.00 | 0.00 | 93 | 1018.8 |
| 20260903041207 | 73 | 308 | 0.0 | 0.0 | 0.00 | 0.00 | 0.00 | 93 | 1018.8 |
| 20260903040706 | 73 | 308 | 0.0 | 0.0 | 0.00 | 0.00 | 0.00 | 93 | 1018.8 |
| 20260903040202 | 73 | 308 | 0.0 | 0.0 | 0.00 | 0.00 | 0.00 | 93 | 1018.8 |
| 20260903035657 | 73 | 308 | 0.0 | 2.0 | 0.00 | 0.00 | 0.00 | 93 | 1019.2 |
| 20260903035148 | 73 | 308 | 0.0 | 0.0 | 0.00 | 0.00 | 0.00 | 92 | 1018.8 |
| 20260903034647 | 73 | 308 | 0.0 | 0.0 | 0.00 | 0.00 | 0.00 | 92 | 1019.2 |
| 20260903034142 | 74 | 308 | 0.0 | 0.0 | 0.00 | 0.00 | 0.00 | 91 | 1019.2 |
| 20260903033638 | 74 | 308 | 0.0 | 0.0 | 0.00 | 0.00 | 0.00 | 89 | 1019.5 |
| 20260903033138 | 74 | 308 | 0.0 | 0.0 | 0.00 | 0.00 | 0.00 | 89 | 1019.2 |
| 20260903032633 | 74 | 308 | 0.0 | 0.0 | 0.00 | 0.00 | 0.00 | 91 | 1019.2 |
| 20260903032128 | 74 | 308 | 2.0 | 4.0 | 0.00 | 0.00 | 0.00 | 91 | 1019.5 |
| 20260903031624 | 74 | 308 | 0.0 | 0.0 | 0.00 | 0.00 | 0.00 | 90 | 1019.5 |
| 20260903031119 | 74 | 308 | 0.0 | 0.0 | 0.00 | 0.00 | 0.00 | 90 | 1019.5 |
| 20260903030614 | 74 | 308 | 2.0 | 3.0 | 0.00 | 0.00 | 0.00 | 90 | 1019.5 |
| 20260903030109 | 74 | 308 | 2.0 | 4.0 | 0.00 | 0.00 | 0.00 | 90 | 1020.0 |
| 20260903025605 | 74 | 308 | 0.0 | 0.0 | 0.00 | 0.00 | 0.00 | 90 | 1020.0 |
| 20260903025100 | 75 | 308 | 2.0 | 3.0 | 0.00 | 0.00 | 0.00 | 88 | 1020.0 |
| 20260903024555 | 75 | 340 | 3.0 | 4.0 | 0.00 | 0.00 | 0.00 | 88 | 1020.0 |
| 20260903024049 | 75 | 340 | 2.0 | 3.0 | 0.00 | 0.00 | 0.00 | 88 | 1020.0 |
| 20260903023545 | 75 | 340 | 1.0 | 3.0 | 0.00 | 0.00 | 0.00 | 89 | 1020.0 |
| 20260903023040 | 75 | 340 | 0.0 | 0.0 | 0.00 | 0.00 | 0.00 | 89 | 1020.0 |
| 20260903022539 | 75 | 340 | 1.0 | 3.0 | 0.00 | 0.00 | 0.00 | 89 | 1020.0 |
| 20260903022039 | 76 | 340 | 0.0 | 0.0 | 0.00 | 0.00 | 0.00 | 87 | 1020.0 |
| 20260903021533 | 77 | 340 | 0.0 | 0.0 | 0.00 | 0.00 | 0.00 | 86 | 1020.0 |
| 20260903021028 | 77 | 340 | 0.0 | 0.0 | 0.00 | 0.00 | 0.00 | 86 | 1020.0 |
| 20260903020524 | 77 | 340 | 0.0 | 0.0 | 0.00 | 0.00 | 0.00 | 85 | 1020.0 |
| 20260903020024 | 77 | 340 | 0.0 | 0.0 | 0.00 | 0.00 | 0.00 | 86 | 1020.0 |
| 20260903015519 | 77 | 340 | 2.0 | 4.0 | 0.00 | 0.00 | 0.00 | 86 | 1020.0 |
| 20260903015014 | 77 | 340 | 0.0 | 0.0 | 0.00 | 0.00 | 0.00 | 86 | 1020.0 |
| 20260903014508 | 77 | 340 | 0.0 | 0.0 | 0.00 | 0.00 | 0.00 | 85 | 1020.0 |
| 20260903014003 | 77 | 340 | 0.0 | 0.0 | 0.00 | 0.00 | 0.00 | 84 | 1020.0 |
| 20260903013503 | 78 | 354 | 1.0 | 4.0 | 0.00 | 0.00 | 0.00 | 83 | 1020.0 |
| 20260903013002 | 78 | 2 | 0.0 | 0.0 | 0.00 | 0.00 | 0.00 | 82 | 1020.0 |
| 20260903012502 | 78 | 2 | 0.0 | 0.0 | 0.00 | 0.00 | 0.00 | 82 | 1020.0 |
| 20260903012001 | 78 | 2 | 0.0 | 0.0 | 0.00 | 0.00 | 0.00 | 81 | 1020.0 |
| 20260903011455 | 78 | 2 | 0.0 | 0.0 | 0.00 | 0.00 | 0.00 | 82 | 1019.5 |
| 20260903010950 | 78 | 2 | 0.0 | 0.0 | 0.00 | 0.00 | 0.00 | 81 | 1019.5 |
| 20260903010445 | 79 | 2 | 0.0 | 0.0 | 0.00 | 0.00 | 0.00 | 79 | 1019.2 |
| 20260903005943 | 79 | 2 | 0.0 | 0.0 | 0.00 | 0.00 | 0.00 | 80 | 1019.2 |
| 20260903005438 | 79 | 2 | 0.0 | 0.0 | 0.00 | 0.00 | 0.00 | 80 | 1018.8 |
| 20260903004935 | 79 | 2 | 0.0 | 0.0 | 0.00 | 0.00 | 0.00 | 79 | 1018.8 |
| 20260903004435 | 80 | 2 | 0.0 | 0.0 | 0.00 | 0.00 | 0.00 | 78 | 1018.8 |
| 20260903003930 | 80 | 2 | 0.0 | 0.0 | 0.00 | 0.00 | 0.00 | 77 | 1018.8 |
| 20260903003430 | 81 | 2 | 0.0 | 0.0 | 0.00 | 0.00 | 0.00 | 75 | 1018.8 |
| 20260903002925 | 82 | 2 | 0.0 | 0.0 | 0.00 | 0.00 | 0.00 | 73 | 1018.8 |
| 20260903002421 | 82 | 2 | 0.0 | 0.0 | 0.00 | 0.00 | 0.00 | 72 | 1018.8 |
| 20260903001915 | 82 | 2 | 0.0 | 0.0 | 0.00 | 0.00 | 0.00 | 71 | 1018.8 |
| 20260903001410 | 83 | 2 | 3.0 | 4.0 | 0.00 | 0.00 | 0.00 | 70 | 1018.8 |
| 20260903000909 | 83 | 23 | 1.0 | 3.0 | 0.00 | 0.00 | 0.00 | 70 | 1018.8 |
| 20260903000405 | 83 | 23 | 1.0 | 4.0 | 0.00 | 0.00 | 0.00 | 70 | 1019.2 |
| 20260902235902 | 83 | 18 | 2.0 | 6.0 | 0.00 | 0.00 | 0.00 | 69 | 1019.2 |
| 20260902235358 | 84 | 342 | 0.0 | 3.0 | 0.00 | 0.00 | 0.00 | 69 | 1019.5 |
| 20260902234857 | 84 | 342 | 1.0 | 4.0 | 0.00 | 0.00 | 0.00 | 69 | 1019.5 |
| 20260902234352 | 84 | 340 | 2.0 | 6.0 | 0.00 | 0.00 | 0.00 | 69 | 1019.5 |
| 20260902233850 | 84 | 6 | 0.0 | 3.0 | 0.00 | 0.00 | 0.00 | 69 | 1019.5 |
| 20260902233345 | 84 | 6 | 2.0 | 5.0 | 0.00 | 0.00 | 0.00 | 68 | 1019.2 |
| 20260902232844 | 84 | 70 | 0.0 | 0.0 | 0.00 | 0.00 | 0.00 | 67 | 1018.8 |
| 20260902232338 | 84 | 70 | 0.0 | 2.0 | 0.00 | 0.00 | 0.00 | 67 | 1019.2 |
| 20260902231833 | 84 | 72 | 3.0 | 4.0 | 0.00 | 0.00 | 0.00 | 67 | 1018.8 |
| 20260902231328 | 85 | 87 | 3.0 | 5.0 | 0.00 | 0.00 | 0.00 | 67 | 1018.8 |
| 20260902230823 | 86 | 77 | 2.0 | 4.0 | 0.00 | 0.00 | 0.00 | 65 | 1018.8 |
| 20260902230322 | 86 | 88 | 2.0 | 5.0 | 0.00 | 0.00 | 0.00 | 65 | 1018.8 |
| 20260902225816 | 86 | 79 | 3.0 | 5.0 | 0.00 | 0.00 | 0.00 | 64 | 1018.8 |
| 20260902225312 | 87 | 81 | 5.0 | 9.0 | 0.00 | 0.00 | 0.00 | 63 | 1018.8 |
| 20260902224810 | 87 | 109 | 4.0 | 8.0 | 0.00 | 0.00 | 0.00 | 62 | 1018.8 |
| 20260902224305 | 88 | 103 | 6.0 | 7.0 | 0.00 | 0.00 | 0.00 | 62 | 1019.2 |
| 20260902223802 | 88 | 76 | 6.0 | 9.0 | 0.00 | 0.00 | 0.00 | 61 | 1019.2 |
| 20260902223301 | 89 | 90 | 11.0 | 14.0 | 0.00 | 0.00 | 0.00 | 58 | 1018.8 |
| 20260902222754 | 93 | 90 | 6.0 | 8.0 | 0.00 | 0.00 | 0.00 | 51 | 1018.8 |
| 20260902222248 | 95 | 111 | 4.0 | 5.0 | 0.00 | 0.00 | 0.00 | 46 | 1018.5 |
| 20260902221742 | 95 | 257 | 0.0 | 0.0 | 0.00 | 0.00 | 0.00 | 47 | 1018.2 |
| 20260902221242 | 95 | 257 | 0.0 | 0.0 | 0.00 | 0.00 | 0.00 | 46 | 1018.2 |
| 20260902220738 | 95 | 257 | 2.0 | 3.0 | 0.00 | 0.00 | 0.00 | 44 | 1018.2 |
| 20260902220232 | 95 | 237 | 2.0 | 5.0 | 0.00 | 0.00 | 0.00 | 45 | 1017.8 |
| 20260902215728 | 95 | 237 | 4.0 | 5.0 | 0.00 | 0.00 | 0.00 | 45 | 1017.8 |
| 20260902215223 | 95 | 237 | 5.0 | 6.0 | 0.00 | 0.00 | 0.00 | 44 | 1017.8 |
| 20260902214719 | 96 | 243 | 6.0 | 7.0 | 0.00 | 0.00 | 0.00 | 42 | 1017.5 |
| 20260902214217 | 97 | 243 | 4.0 | 7.0 | 0.00 | 0.00 | 0.00 | 42 | 1017.5 |
| 20260902213713 | 97 | 228 | 6.0 | 9.0 | 0.00 | 0.00 | 0.00 | 43 | 1017.5 |
| 20260902213212 | 98 | 225 | 5.0 | 6.0 | 0.00 | 0.00 | 0.00 | 42 | 1017.5 |
| 20260902212707 | 98 | 254 | 4.0 | 6.0 | 0.00 | 0.00 | 0.00 | 42 | 1017.5 |
| 20260902212204 | 98 | 254 | 5.0 | 7.0 | 0.00 | 0.00 | 0.00 | 41 | 1017.5 |
| 20260902211700 | 99 | 280 | 5.0 | 7.0 | 0.00 | 0.00 | 0.00 | 40 | 1017.2 |
| 20260902211159 | 98 | 252 | 6.0 | 8.0 | 0.00 | 0.00 | 0.00 | 40 | 1017.2 |
| 20260902210654 | 98 | 233 | 5.0 | 7.0 | 0.00 | 0.00 | 0.00 | 41 | 1017.2 |
| 20260902210149 | 99 | 238 | 5.0 | 7.0 | 0.00 | 0.00 | 0.00 | 40 | 1017.2 |
| 20260902205647 | 99 | 191 | 3.0 | 5.0 | 0.00 | 0.00 | 0.00 | 39 | 1017.2 |
| 20260902205143 | 99 | 241 | 4.0 | 6.0 | 0.00 | 0.00 | 0.00 | 37 | 1017.2 |
| 20260902204637 | 99 | 224 | 1.0 | 3.0 | 0.00 | 0.00 | 0.00 | 39 | 1017.2 |
| 20260902204133 | 99 | 254 | 6.0 | 8.0 | 0.00 | 0.00 | 0.00 | 40 | 1017.2 |
| 20260902203628 | 100 | 225 | 6.0 | 9.0 | 0.00 | 0.00 | 0.00 | 40 | 1017.2 |
| 20260902203127 | 100 | 227 | 2.0 | 5.0 | 0.00 | 0.00 | 0.00 | 39 | 1017.2 |
| 20260902202618 | 100 | 248 | 5.0 | 8.0 | 0.00 | 0.00 | 0.00 | 38 | 1017.2 |
| 20260902202114 | 100 | 243 | 0.0 | 2.0 | 0.00 | 0.00 | 0.00 | 37 | 1017.2 |
| 20260902201610 | 100 | 241 | 2.0 | 6.0 | 0.00 | 0.00 | 0.00 | 37 | 1017.2 |
| 20260902201108 | 100 | 294 | 2.0 | 6.0 | 0.00 | 0.00 | 0.00 | 38 | 1017.2 |
| 20260902200603 | 99 | 292 | 4.0 | 7.0 | 0.00 | 0.00 | 0.00 | 37 | 1017.2 |
| 20260902200100 | 99 | 243 | 7.0 | 9.0 | 0.00 | 0.00 | 0.00 | 39 | 1017.2 |
| 20260902195555 | 99 | 225 | 7.0 | 11.0 | 0.00 | 0.00 | 0.00 | 38 | 1017.2 |
| 20260902195055 | 99 | 152 | 1.0 | 7.0 | 0.00 | 0.00 | 0.00 | 38 | 1017.2 |
| 20260902194554 | 100 | 235 | 6.0 | 10.0 | 0.00 | 0.00 | 0.00 | 39 | 1017.2 |
| 20260902194050 | 100 | 114 | 2.0 | 6.0 | 0.00 | 0.00 | 0.00 | 38 | 1017.2 |
| 20260902193546 | 99 | 163 | 3.0 | 5.0 | 0.00 | 0.00 | 0.00 | 38 | 1017.2 |
| 20260902193045 | 100 | 188 | 3.0 | 5.0 | 0.00 | 0.00 | 0.00 | 38 | 1017.2 |